Time,TemperatureF,DewpointF,PressureIn,WindDirection,WindDirectionDegrees,WindSpeedMPH,WindSpeedGustMPH,Humidity,HourlyPrecipIn,Conditions,Clouds,dailyrainin,SoftwareType,DateUTC
2013-02-07 00:00:00,41.5,38.8,29.62,SE,135,4.5,8.1,90,0.01,CLR,BKN,0.00,WeatherDisplay:10.37,2013-02-07 08:00:00,
2013-02-07 00:05:00,41.5,38.8,29.62,SE,135,4.5,8.1,90,0.01,CLR,BKN,0.00,WeatherDisplay:10.37,2013-02-07 08:05:00,
2013-02-07 00:10:00,41.7,39.0,29.62,SE,135,4.5,9.2,90,0.01,CLR,BKN,0.00,WeatherDisplay:10.37,2013-02-07 08:10:00,
2013-02-07 00:15:00,41.7,39.0,29.62,East,90,2.2,5.8,90,0.01,CLR,BKN,0.00,WeatherDisplay:10.37,2013-02-07 08:15:00,
2013-02-07 00:20:00,41.5,39.1,29.62,SE,135,1.6,6.0,91,0.00,CLR,BKN,0.00,WeatherDisplay:10.37,2013-02-07 08:20:00,
2013-02-07 00:25:00,41.5,39.1,29.63,SE,135,1.6,5.8,91,0.00,CLR,BKN,0.00,WeatherDisplay:10.37,2013-02-07 08:25:00,
2013-02-07 00:27:00,41.5,39.1,29.62,East,90,2.2,5.8,91,0.01,RA,BKN,0.01,WeatherDisplay:10.37,2013-02-07 08:27:00,
2013-02-07 00:30:00,41.5,39.1,29.62,East,90,3.1,8.1,91,0.00,CLR,BKN,0.00,WeatherDisplay:10.37,2013-02-07 08:30:00,
2013-02-07 00:35:00,41.5,39.4,29.63,SE,135,3.8,5.8,92,0.01,RA,BKN,0.01,WeatherDisplay:10.37,2013-02-07 08:35:00,
2013-02-07 01:00:00,41.7,39.6,29.60,SE,135,8.3,12.6,92,0.02,CLR,BKN,0.02,WeatherDisplay:10.37,2013-02-07 09:00:00,
2013-02-07 01:05:00,41.7,39.6,29.60,SE,135,8.3,12.6,92,0.02,CLR,BKN,0.02,WeatherDisplay:10.37,2013-02-07 09:05:00,
2013-02-07 01:10:00,42.1,39.6,29.60,SE,135,5.4,12.6,91,0.02,CLR,BKN,0.02,WeatherDisplay:10.37,2013-02-07 09:10:00,
2013-02-07 01:15:00,42.1,39.6,29.60,East,90,7.6,12.6,91,0.02,CLR,BKN,0.02,WeatherDisplay:10.37,2013-02-07 09:15:00,
2013-02-07 01:20:00,42.1,39.6,29.60,South,180,3.8,9.2,91,0.02,CLR,BKN,0.02,WeatherDisplay:10.37,2013-02-07 09:20:00,
2013-02-07 01:25:00,42.1,39.9,29.61,SE,135,3.1,6.9,92,0.02,CLR,BKN,0.02,WeatherDisplay:10.37,2013-02-07 09:25:00,
2013-02-07 01:27:00,42.1,39.9,29.62,South,180,1.6,5.8,92,0.01,CLR,BKN,0.02,WeatherDisplay:10.37,2013-02-07 09:27:00,
2013-02-07 01:30:00,42.1,39.9,29.61,SE,135,3.1,5.8,92,0.02,CLR,BKN,0.02,WeatherDisplay:10.37,2013-02-07 09:30:00,
2013-02-07 01:35:00,42.1,39.9,29.61,SE,135,2.2,8.1,92,0.01,CLR,BKN,0.02,WeatherDisplay:10.37,2013-02-07 09:35:00,
2013-02-07 02:00:00,41.9,40.0,29.62,SE,135,2.2,5.8,93,0.11,RA,BKN,0.13,WeatherDisplay:10.37,2013-02-07 10:00:00,
2013-02-07 02:05:00,41.9,40.0,29.62,SE,135,2.2,5.8,93,0.11,RA,BKN,0.13,WeatherDisplay:10.37,2013-02-07 10:05:00,
2013-02-07 02:10:00,41.5,39.1,29.61,SE,135,2.2,5.8,91,0.11,,BKN,0.13,WeatherDisplay:10.37,2013-02-07 10:10:00,
2013-02-07 02:15:00,41.5,38.8,29.61,East,90,1.6,5.8,90,0.11,CLR,BKN,0.13,WeatherDisplay:10.37,2013-02-07 10:15:00,
2013-02-07 02:20:00,41.2,38.5,29.62,SE,135,3.1,4.6,90,0.11,CLR,BKN,0.13,WeatherDisplay:10.37,2013-02-07 10:20:00,
2013-02-07 02:25:00,41.0,38.3,29.62,South,180,2.2,6.9,90,0.11,CLR,BKN,0.13,WeatherDisplay:10.37,2013-02-07 10:25:00,
2013-02-07 02:27:00,40.6,38.2,29.62,East,90,3.1,5.8,91,0.11,CLR,BKN,0.13,WeatherDisplay:10.37,2013-02-07 10:27:00,
2013-02-07 02:30:00,40.8,38.1,29.62,East,90,2.2,6.9,90,0.11,CLR,BKN,0.13,WeatherDisplay:10.37,2013-02-07 10:30:00,
2013-02-07 02:35:00,40.6,38.2,29.63,ESE,112,3.1,6.9,91,0.11,CLR,BKN,0.13,WeatherDisplay:10.37,2013-02-07 10:35:00,
2013-02-07 03:00:00,40.6,38.5,29.63,East,90,1.6,5.8,92,0.00,CLR,BKN,0.13,WeatherDisplay:10.37,2013-02-07 11:00:00,
2013-02-07 03:05:00,40.6,38.5,29.63,East,90,1.6,3.4,92,0.00,CLR,BKN,0.13,WeatherDisplay:10.37,2013-02-07 11:05:00,
2013-02-07 03:10:00,41.0,39.1,29.62,East,90,2.2,5.8,93,0.00,CLR,BKN,0.13,WeatherDisplay:10.37,2013-02-07 11:10:00,
2013-02-07 03:15:00,41.0,39.4,29.63,East,90,2.2,5.8,94,0.00,CLR,BKN,0.13,WeatherDisplay:10.37,2013-02-07 11:15:00,
2013-02-07 03:20:00,41.0,39.4,29.63,SE,135,2.2,5.8,94,0.00,CLR,BKN,0.13,WeatherDisplay:10.37,2013-02-07 11:20:00,
2013-02-07 03:25:00,41.0,39.4,29.63,SE,135,3.1,5.8,94,0.00,CLR,BKN,0.13,WeatherDisplay:10.37,2013-02-07 11:25:00,
2013-02-07 03:27:00,41.2,39.6,29.64,East,90,2.2,8.1,94,0.00,CLR,BKN,0.13,WeatherDisplay:10.37,2013-02-07 11:27:00,
2013-02-07 03:30:00,41.2,39.6,29.63,SE,135,3.8,6.9,94,0.00,CLR,BKN,0.13,WeatherDisplay:10.37,2013-02-07 11:30:00,
2013-02-07 03:35:00,41.2,39.6,29.63,South,180,4.5,8.1,94,0.00,CLR,BKN,0.13,WeatherDisplay:10.37,2013-02-07 11:35:00,
2013-02-07 04:00:00,41.2,39.9,29.64,South,180,4.5,8.1,95,0.00,CLR,BKN,0.13,WeatherDisplay:10.37,2013-02-07 12:00:00,
2013-02-07 04:05:00,41.2,39.9,29.64,South,180,4.5,8.1,95,0.00,CLR,BKN,0.13,WeatherDisplay:10.37,2013-02-07 12:05:00,
2013-02-07 04:10:00,41.2,39.9,29.64,SE,135,3.1,8.1,95,0.00,CLR,BKN,0.13,WeatherDisplay:10.37,2013-02-07 12:10:00,
2013-02-07 04:15:00,41.2,39.9,29.64,North,0,3.8,6.9,95,0.00,CLR,BKN,0.13,WeatherDisplay:10.37,2013-02-07 12:15:00,
2013-02-07 04:20:00,41.2,39.9,29.65,East,90,3.8,8.1,95,0.00,CLR,BKN,0.13,WeatherDisplay:10.37,2013-02-07 12:20:00,
2013-02-07 04:25:00,41.4,40.0,29.65,NNE,22,5.4,10.3,95,0.00,CLR,BKN,0.13,WeatherDisplay:10.37,2013-02-07 12:25:00,
2013-02-07 04:27:00,41.4,39.8,29.65,East,90,3.1,6.9,94,0.00,CLR,BKN,0.13,WeatherDisplay:10.37,2013-02-07 12:27:00,
2013-02-07 04:30:00,41.4,40.0,29.65,SE,135,4.5,8.1,95,0.00,CLR,BKN,0.13,WeatherDisplay:10.37,2013-02-07 12:30:00,
2013-02-07 04:35:00,41.4,39.8,29.65,East,90,2.2,9.2,94,0.00,CLR,BKN,0.13,WeatherDisplay:10.37,2013-02-07 12:35:00,
2013-02-07 05:00:00,41.0,39.1,29.65,East,90,3.8,5.8,93,0.00,CLR,BKN,0.13,WeatherDisplay:10.37,2013-02-07 13:00:00,
2013-02-07 05:05:00,41.0,39.1,29.65,East,90,3.8,5.8,93,0.00,CLR,BKN,0.13,WeatherDisplay:10.37,2013-02-07 13:05:00,
2013-02-07 05:10:00,41.0,38.3,29.65,SE,135,1.6,4.6,90,0.00,CLR,BKN,0.13,WeatherDisplay:10.37,2013-02-07 13:10:00,
2013-02-07 05:15:00,40.6,37.4,29.65,ESE,112,4.5,9.2,88,0.00,CLR,BKN,0.13,WeatherDisplay:10.37,2013-02-07 13:15:00,
2013-02-07 05:20:00,40.6,37.1,29.65,SE,135,3.1,8.1,87,0.00,CLR,BKN,0.13,WeatherDisplay:10.37,2013-02-07 13:20:00,
2013-02-07 05:25:00,40.5,36.9,29.65,NE,45,2.2,8.1,87,0.00,CLR,BKN,0.13,WeatherDisplay:10.37,2013-02-07 13:25:00,
2013-02-07 05:27:00,39.9,36.1,29.66,North,0,2.2,6.9,86,0.00,CLR,BKN,0.13,WeatherDisplay:10.37,2013-02-07 13:27:00,
2013-02-07 05:30:00,40.3,36.4,29.66,NE,45,3.1,8.1,86,0.00,CLR,BKN,0.13,WeatherDisplay:10.37,2013-02-07 13:30:00,
2013-02-07 05:35:00,39.9,36.1,29.66,North,0,3.1,6.9,86,0.00,CLR,BKN,0.13,WeatherDisplay:10.37,2013-02-07 13:35:00,
2013-02-07 06:00:00,39.7,36.2,29.68,SE,135,1.6,6.9,87,0.01,RA,BKN,0.14,WeatherDisplay:10.37,2013-02-07 14:00:00,
2013-02-07 06:05:00,39.7,36.2,29.69,SE,135,1.6,3.4,87,0.01,RA,BKN,0.14,WeatherDisplay:10.37,2013-02-07 14:05:00,
2013-02-07 06:10:00,40.3,36.1,29.69,East,90,4.5,8.1,85,0.01,,BKN,0.14,WeatherDisplay:10.37,2013-02-07 14:10:00,
2013-02-07 06:15:00,40.6,36.2,29.69,SE,135,3.8,8.1,84,0.01,CLR,BKN,0.14,WeatherDisplay:10.37,2013-02-07 14:15:00,
2013-02-07 06:20:00,40.8,36.1,29.70,NE,45,4.5,10.3,83,0.01,CLR,BKN,0.14,WeatherDisplay:10.37,2013-02-07 14:20:00,
2013-02-07 06:25:00,41.0,35.9,29.70,South,180,4.5,9.2,82,0.01,CLR,BKN,0.14,WeatherDisplay:10.37,2013-02-07 14:25:00,
2013-02-07 06:27:00,41.0,35.9,29.72,SE,135,3.8,10.3,82,0.01,CLR,BKN,0.14,WeatherDisplay:10.37,2013-02-07 14:27:00,
2013-02-07 06:30:00,41.2,36.1,29.71,East,90,2.2,8.1,82,0.01,CLR,BKN,0.14,WeatherDisplay:10.37,2013-02-07 14:30:00,
2013-02-07 06:35:00,41.0,35.9,29.71,NE,45,6.0,10.7,82,0.01,CLR,BKN,0.14,WeatherDisplay:10.37,2013-02-07 14:35:00,
2013-02-07 07:00:00,40.8,35.7,29.74,NE,45,1.6,5.8,82,0.00,CLR,BKN,0.14,WeatherDisplay:10.37,2013-02-07 15:00:00,
2013-02-07 07:05:00,40.6,35.9,29.74,SE,135,1.6,4.6,83,0.00,CLR,BKN,0.14,WeatherDisplay:10.37,2013-02-07 15:05:00,
2013-02-07 07:10:00,40.5,35.7,29.75,SE,135,3.1,6.9,83,0.00,CLR,BKN,0.14,WeatherDisplay:10.37,2013-02-07 15:10:00,
2013-02-07 07:15:00,40.3,35.5,29.75,NE,45,2.2,5.8,83,0.00,CLR,BKN,0.14,WeatherDisplay:10.37,2013-02-07 15:15:00,
2013-02-07 07:20:00,40.5,35.7,29.76,East,90,2.2,8.1,83,0.00,CLR,BKN,0.14,WeatherDisplay:10.37,2013-02-07 15:20:00,
2013-02-07 07:25:00,40.3,35.8,29.77,SE,135,0.7,3.4,84,0.00,CLR,BKN,0.14,WeatherDisplay:10.37,2013-02-07 15:25:00,
2013-02-07 07:27:00,39.9,35.8,29.77,SE,135,0.7,1.1,85,0.00,CLR,BKN,0.14,WeatherDisplay:10.37,2013-02-07 15:27:00,
2013-02-07 07:30:00,39.9,35.8,29.77,SE,135,0.7,2.3,85,0.00,CLR,BKN,0.14,WeatherDisplay:10.37,2013-02-07 15:30:00,
2013-02-07 07:35:00,39.9,35.8,29.78,SE,135,0.7,1.1,85,0.00,CLR,BKN,0.14,WeatherDisplay:10.37,2013-02-07 15:35:00,
2013-02-07 08:00:00,39.6,36.0,29.80,East,90,2.2,3.4,87,0.00,CLR,BKN,0.14,WeatherDisplay:10.37,2013-02-07 16:00:00,
2013-02-07 08:05:00,39.6,36.0,29.80,SE,135,1.6,3.4,87,0.00,CLR,BKN,0.14,WeatherDisplay:10.37,2013-02-07 16:05:00,
2013-02-07 08:10:00,39.6,36.0,29.81,SE,135,0.0,3.4,87,0.00,CLR,BKN,0.14,WeatherDisplay:10.37,2013-02-07 16:10:00,
2013-02-07 08:15:00,39.6,36.0,29.81,North,0,0.7,2.3,87,0.00,CLR,BKN,0.14,WeatherDisplay:10.37,2013-02-07 16:15:00,
2013-02-07 08:20:00,39.6,36.0,29.82,East,90,2.2,4.6,87,0.00,CLR,BKN,0.14,WeatherDisplay:10.37,2013-02-07 16:20:00,
2013-02-07 08:25:00,39.6,36.0,29.82,East,90,2.2,4.6,87,0.00,CLR,BKN,0.14,WeatherDisplay:10.37,2013-02-07 16:25:00,
2013-02-07 08:27:00,39.9,36.1,29.83,SE,135,1.6,5.8,86,0.00,CLR,BKN,0.14,WeatherDisplay:10.37,2013-02-07 16:27:00,
2013-02-07 08:30:00,39.7,36.2,29.83,NE,45,0.0,2.3,87,0.00,CLR,BKN,0.14,WeatherDisplay:10.37,2013-02-07 16:30:00,
2013-02-07 08:35:00,39.9,36.1,29.83,SE,135,3.1,8.1,86,0.00,CLR,BKN,0.14,WeatherDisplay:10.37,2013-02-07 16:35:00,
2013-02-07 09:00:00,39.9,36.1,29.84,SE,135,1.6,2.3,86,0.00,CLR,BKN,0.14,WeatherDisplay:10.37,2013-02-07 17:00:00,
2013-02-07 09:05:00,40.1,36.2,29.84,East,90,1.6,3.4,86,0.00,CLR,BKN,0.14,WeatherDisplay:10.37,2013-02-07 17:05:00,
2013-02-07 09:10:00,40.1,36.2,29.84,East,90,0.0,3.4,86,0.00,CLR,BKN,0.14,WeatherDisplay:10.37,2013-02-07 17:10:00,
2013-02-07 09:15:00,40.3,36.4,29.84,North,0,0.7,2.3,86,0.00,CLR,BKN,0.14,WeatherDisplay:10.37,2013-02-07 17:15:00,
2013-02-07 09:20:00,40.5,36.3,29.85,NW,315,0.0,1.1,85,0.00,CLR,BKN,0.14,WeatherDisplay:10.37,2013-02-07 17:20:00,
2013-02-07 09:25:00,40.6,36.5,29.85,SE,135,0.0,1.1,85,0.00,CLR,BKN,0.14,WeatherDisplay:10.37,2013-02-07 17:25:00,
2013-02-07 09:27:00,40.8,36.7,29.85,East,90,0.0,2.3,85,0.00,CLR,BKN,0.14,WeatherDisplay:10.37,2013-02-07 17:27:00,
2013-02-07 09:30:00,40.8,37.0,29.85,ESE,112,0.7,2.3,86,0.00,CLR,BKN,0.14,WeatherDisplay:10.37,2013-02-07 17:30:00,
2013-02-07 09:35:00,40.8,37.0,29.85,SE,135,0.7,4.6,86,0.00,CLR,BKN,0.14,WeatherDisplay:10.37,2013-02-07 17:35:00,
2013-02-07 10:00:00,41.2,37.0,29.86,East,90,1.6,3.4,85,0.00,CLR,BKN,0.14,WeatherDisplay:10.37,2013-02-07 18:00:00,
2013-02-07 10:05:00,41.2,36.4,29.86,SE,135,1.6,4.6,83,0.00,CLR,BKN,0.14,WeatherDisplay:10.37,2013-02-07 18:05:00,
2013-02-07 10:10:00,41.5,36.5,29.86,NE,45,1.6,3.8,82,0.00,CLR,BKN,0.14,WeatherDisplay:10.37,2013-02-07 18:10:00,
2013-02-07 10:15:00,41.5,36.5,29.87,East,90,2.2,4.6,82,0.00,CLR,BKN,0.14,WeatherDisplay:10.37,2013-02-07 18:15:00,
2013-02-07 10:20:00,41.5,35.8,29.87,East,90,1.6,8.1,80,0.00,CLR,BKN,0.14,WeatherDisplay:10.37,2013-02-07 18:20:00,
2013-02-07 10:25:00,41.7,35.7,29.87,East,90,3.1,6.9,79,0.00,CLR,BKN,0.14,WeatherDisplay:10.37,2013-02-07 18:25:00,
2013-02-07 10:27:00,41.7,35.7,29.88,SE,135,2.2,5.8,79,0.00,CLR,BKN,0.14,WeatherDisplay:10.37,2013-02-07 18:27:00,
2013-02-07 10:30:00,41.7,36.0,29.87,SE,135,3.1,6.9,80,0.00,CLR,BKN,0.14,WeatherDisplay:10.37,2013-02-07 18:30:00,
2013-02-07 10:35:00,41.7,35.7,29.88,SE,135,2.2,8.1,79,0.00,CLR,BKN,0.14,WeatherDisplay:10.37,2013-02-07 18:35:00,
2013-02-07 11:00:00,42.3,34.9,29.90,SE,135,1.6,4.6,75,0.00,CLR,BKN,0.14,WeatherDisplay:10.37,2013-02-07 19:00:00,
2013-02-07 11:05:00,42.4,35.1,29.89,NE,45,0.0,2.3,75,0.00,CLR,BKN,0.14,WeatherDisplay:10.37,2013-02-07 19:05:00,
2013-02-07 11:10:00,42.4,35.1,29.90,NE,45,0.0,1.1,75,0.00,CLR,BKN,0.14,WeatherDisplay:10.37,2013-02-07 19:10:00,
2013-02-07 11:15:00,42.6,35.6,29.91,SW,225,0.7,3.4,76,0.00,CLR,BKN,0.14,WeatherDisplay:10.37,2013-02-07 19:15:00,
2013-02-07 11:20:00,42.4,35.7,29.91,NNW,338,0.7,4.6,77,0.00,CLR,BKN,0.14,WeatherDisplay:10.37,2013-02-07 19:20:00,
2013-02-07 11:25:00,42.3,35.9,29.91,NW,315,0.7,5.8,78,0.00,CLR,BKN,0.14,WeatherDisplay:10.37,2013-02-07 19:25:00,
2013-02-07 11:27:00,42.3,35.9,29.92,NE,45,0.0,1.1,78,0.00,CLR,BKN,0.14,WeatherDisplay:10.37,2013-02-07 19:27:00,
2013-02-07 11:30:00,42.3,35.9,29.91,ENE,68,1.6,4.6,78,0.00,CLR,BKN,0.14,WeatherDisplay:10.37,2013-02-07 19:30:00,
2013-02-07 11:35:00,42.3,35.9,29.92,NE,45,0.0,1.1,78,0.00,CLR,BKN,0.14,WeatherDisplay:10.37,2013-02-07 19:35:00,
2013-02-07 12:00:00,42.6,36.2,29.92,SE,135,1.6,4.6,78,0.00,CLR,BKN,0.14,WeatherDisplay:10.37,2013-02-07 20:00:00,
2013-02-07 12:05:00,42.8,36.4,29.92,East,90,1.6,4.6,78,0.00,CLR,BKN,0.14,WeatherDisplay:10.37,2013-02-07 20:05:00,
2013-02-07 12:10:00,43.0,36.6,29.93,East,90,0.7,2.3,78,0.00,CLR,BKN,0.14,WeatherDisplay:10.37,2013-02-07 20:10:00,
2013-02-07 12:15:00,43.2,36.4,29.93,SE,135,3.8,5.8,77,0.00,CLR,BKN,0.14,WeatherDisplay:10.37,2013-02-07 20:15:00,
2013-02-07 12:20:00,43.7,37.0,29.93,SE,135,2.2,4.6,77,0.00,CLR,BKN,0.14,WeatherDisplay:10.37,2013-02-07 20:20:00,
2013-02-07 12:25:00,44.1,37.0,29.93,SE,135,2.2,5.8,76,0.00,CLR,BKN,0.14,WeatherDisplay:10.37,2013-02-07 20:25:00,
2013-02-07 12:27:00,44.8,36.7,29.93,SE,135,2.2,5.8,73,0.00,CLR,BKN,0.14,WeatherDisplay:10.37,2013-02-07 20:27:00,
2013-02-07 12:30:00,44.4,37.0,29.93,SE,135,2.2,5.8,75,0.00,CLR,BKN,0.14,WeatherDisplay:10.37,2013-02-07 20:30:00,
2013-02-07 12:35:00,44.8,37.0,29.93,East,90,1.6,4.6,74,0.00,CLR,BKN,0.14,WeatherDisplay:10.37,2013-02-07 20:35:00,
2013-02-07 13:00:00,46.0,36.4,29.94,East,90,0.0,2.3,69,0.00,CLR,BKN,0.14,WeatherDisplay:10.37,2013-02-07 21:00:00,
2013-02-07 13:05:00,46.2,35.5,29.94,SE,135,2.2,4.6,66,0.00,CLR,BKN,0.14,WeatherDisplay:10.37,2013-02-07 21:05:00,
2013-02-07 13:10:00,46.0,36.1,29.94,SE,135,1.6,2.3,68,0.00,CLR,BKN,0.14,WeatherDisplay:10.37,2013-02-07 21:10:00,
2013-02-07 13:15:00,45.9,35.9,29.94,SE,135,0.7,2.3,68,0.00,CLR,BKN,0.14,WeatherDisplay:10.37,2013-02-07 21:15:00,
2013-02-07 13:20:00,46.0,36.1,29.94,East,90,0.0,2.3,68,0.00,CLR,BKN,0.14,WeatherDisplay:10.37,2013-02-07 21:20:00,
2013-02-07 13:25:00,46.0,36.1,29.94,SE,135,0.7,3.4,68,0.00,CLR,BKN,0.14,WeatherDisplay:10.37,2013-02-07 21:25:00,
2013-02-07 13:27:00,46.0,36.1,29.94,East,90,1.6,3.4,68,0.00,CLR,BKN,0.14,WeatherDisplay:10.37,2013-02-07 21:27:00,
2013-02-07 13:30:00,46.2,36.2,29.94,SE,135,0.7,2.3,68,0.00,CLR,BKN,0.14,WeatherDisplay:10.37,2013-02-07 21:30:00,
2013-02-07 13:35:00,46.0,36.1,29.94,SE,135,1.6,2.3,68,0.00,CLR,BKN,0.14,WeatherDisplay:10.37,2013-02-07 21:35:00,
2013-02-07 14:00:00,45.9,36.3,29.94,SW,225,0.0,1.1,69,0.00,CLR,BKN,0.14,WeatherDisplay:10.37,2013-02-07 22:00:00,
2013-02-07 14:05:00,45.9,36.3,29.95,SW,225,0.0,2.3,69,0.00,CLR,BKN,0.14,WeatherDisplay:10.37,2013-02-07 22:05:00,
2013-02-07 14:10:00,46.0,36.1,29.95,West,270,1.6,3.4,68,0.00,CLR,BKN,0.14,WeatherDisplay:10.37,2013-02-07 22:10:00,
2013-02-07 14:15:00,46.0,35.7,29.95,NW,315,0.7,3.4,67,0.00,CLR,BKN,0.14,WeatherDisplay:10.37,2013-02-07 22:15:00,
2013-02-07 14:20:00,46.0,34.9,29.95,North,0,0.0,1.1,65,0.00,CLR,BKN,0.14,WeatherDisplay:10.37,2013-02-07 22:20:00,
2013-02-07 14:25:00,46.4,36.0,29.95,West,270,0.7,2.3,67,0.00,CLR,BKN,0.14,WeatherDisplay:10.37,2013-02-07 22:25:00,
2013-02-07 14:27:00,46.6,34.2,29.95,West,270,2.2,4.6,62,0.00,CLR,BKN,0.14,WeatherDisplay:10.37,2013-02-07 22:27:00,
2013-02-07 14:30:00,46.8,36.0,29.95,West,270,2.2,3.8,66,0.00,CLR,BKN,0.14,WeatherDisplay:10.37,2013-02-07 22:30:00,
2013-02-07 14:35:00,46.6,34.2,29.95,SW,225,2.2,4.6,62,0.00,CLR,BKN,0.14,WeatherDisplay:10.37,2013-02-07 22:35:00,
2013-02-07 15:00:00,46.8,32.3,29.96,North,0,2.2,4.6,57,0.00,CLR,BKN,0.14,WeatherDisplay:10.37,2013-02-07 23:00:00,
2013-02-07 15:05:00,46.6,32.6,29.96,SW,225,0.7,3.4,58,0.00,CLR,BKN,0.14,WeatherDisplay:10.37,2013-02-07 23:05:00,
2013-02-07 15:10:00,46.6,32.6,29.96,South,180,0.0,2.3,58,0.00,CLR,BKN,0.14,WeatherDisplay:10.37,2013-02-07 23:10:00,
2013-02-07 15:15:00,46.4,32.0,29.96,South,180,0.7,3.4,57,0.00,CLR,BKN,0.14,WeatherDisplay:10.37,2013-02-07 23:15:00,
2013-02-07 15:20:00,46.2,32.2,29.96,SW,225,1.6,3.4,58,0.00,CLR,BKN,0.14,WeatherDisplay:10.37,2013-02-07 23:20:00,
2013-02-07 15:25:00,46.0,32.1,29.96,North,0,0.0,1.1,58,0.00,CLR,BKN,0.14,WeatherDisplay:10.37,2013-02-07 23:25:00,
2013-02-07 15:27:00,45.7,33.0,29.96,SE,135,0.7,2.3,61,0.00,CLR,BKN,0.14,WeatherDisplay:10.37,2013-02-07 23:27:00,
2013-02-07 15:30:00,45.9,32.3,29.96,West,270,0.0,1.1,59,0.00,CLR,BKN,0.14,WeatherDisplay:10.37,2013-02-07 23:30:00,
2013-02-07 15:35:00,45.9,32.3,29.96,NE,45,0.0,1.1,59,0.00,CLR,BKN,0.14,WeatherDisplay:10.37,2013-02-07 23:35:00,
2013-02-07 16:00:00,45.0,33.9,29.98,South,180,0.0,1.1,65,0.00,CLR,BKN,0.14,WeatherDisplay:10.37,2013-02-08 00:00:00,
2013-02-07 16:05:00,44.8,33.7,29.98,SE,135,0.0,1.1,65,0.00,CLR,BKN,0.14,WeatherDisplay:10.37,2013-02-08 00:05:00,
2013-02-07 16:10:00,44.6,33.6,29.98,North,0,0.0,3.4,65,0.00,CLR,BKN,0.14,WeatherDisplay:10.37,2013-02-08 00:10:00,
2013-02-07 16:15:00,44.4,33.4,29.98,SE,135,0.7,3.4,65,0.00,CLR,BKN,0.14,WeatherDisplay:10.37,2013-02-08 00:15:00,
2013-02-07 16:20:00,44.2,33.6,29.99,East,90,0.7,2.3,66,0.00,CLR,BKN,0.14,WeatherDisplay:10.37,2013-02-08 00:20:00,
2013-02-07 16:25:00,43.7,33.5,29.99,East,90,0.0,1.6,67,0.00,CLR,BKN,0.14,WeatherDisplay:10.37,2013-02-08 00:25:00,
2013-02-07 16:27:00,43.0,33.1,29.99,South,180,0.0,1.1,68,0.00,CLR,BKN,0.14,WeatherDisplay:10.37,2013-02-08 00:27:00,
2013-02-07 16:30:00,43.5,33.3,29.99,North,0,0.0,1.1,67,0.00,CLR,BKN,0.14,WeatherDisplay:10.37,2013-02-08 00:30:00,
2013-02-07 16:35:00,43.2,33.3,29.99,South,180,0.0,1.1,68,0.00,CLR,BKN,0.14,WeatherDisplay:10.37,2013-02-08 00:35:00,
2013-02-07 17:00:00,40.5,33.2,30.00,SW,225,0.0,1.6,75,0.00,CLR,BKN,0.14,WeatherDisplay:10.37,2013-02-08 01:00:00,
2013-02-07 17:05:00,40.1,33.1,30.00,West,270,0.0,1.6,76,0.00,CLR,BKN,0.14,WeatherDisplay:10.37,2013-02-08 01:05:00,
2013-02-07 17:10:00,39.4,32.8,30.00,SW,225,0.0,1.1,77,0.00,CLR,BKN,0.14,WeatherDisplay:10.37,2013-02-08 01:10:00,
2013-02-07 17:15:00,38.8,32.2,30.00,West,270,0.0,0.0,77,0.00,CLR,BKN,0.14,WeatherDisplay:10.37,2013-02-08 01:15:00,
2013-02-07 17:20:00,38.3,32.0,30.00,South,180,0.0,1.1,78,0.00,CLR,BKN,0.14,WeatherDisplay:10.37,2013-02-08 01:20:00,
2013-02-07 17:25:00,37.8,31.8,30.01,SW,225,0.0,0.0,79,0.00,CLR,BKN,0.14,WeatherDisplay:10.37,2013-02-08 01:25:00,
2013-02-07 17:27:00,37.0,31.4,30.02,West,270,0.0,1.1,80,0.00,CLR,BKN,0.14,WeatherDisplay:10.37,2013-02-08 01:27:00,
2013-02-07 17:30:00,37.2,31.6,30.01,West,270,0.0,1.1,80,0.00,CLR,BKN,0.14,WeatherDisplay:10.37,2013-02-08 01:30:00,
2013-02-07 17:35:00,37.0,31.4,30.02,West,270,0.0,1.1,80,0.00,CLR,BKN,0.14,WeatherDisplay:10.37,2013-02-08 01:35:00,
2013-02-07 18:00:00,35.8,31.4,30.03,SW,225,0.0,1.1,84,0.00,CLR,BKN,0.14,WeatherDisplay:10.37,2013-02-08 02:00:00,
2013-02-07 18:05:00,35.8,31.4,30.03,SW,225,0.0,1.1,84,0.00,CLR,BKN,0.14,WeatherDisplay:10.37,2013-02-08 02:05:00,
2013-02-07 18:10:00,35.2,30.9,30.03,SW,225,0.0,0.0,84,0.00,CLR,BKN,0.14,WeatherDisplay:10.37,2013-02-08 02:10:00,
2013-02-07 18:15:00,34.9,30.5,30.03,SW,225,0.0,1.1,84,0.00,CLR,BKN,0.14,WeatherDisplay:10.37,2013-02-08 02:15:00,
2013-02-07 18:20:00,34.5,30.5,30.03,SW,225,0.0,1.1,85,0.00,CLR,BKN,0.14,WeatherDisplay:10.37,2013-02-08 02:20:00,
2013-02-07 18:25:00,34.3,30.3,30.03,SW,225,0.0,0.0,85,0.00,CLR,BKN,0.14,WeatherDisplay:10.37,2013-02-08 02:25:00,
2013-02-07 18:27:00,33.3,29.2,30.03,SW,225,0.0,0.0,85,0.00,CLR,BKN,0.14,WeatherDisplay:10.37,2013-02-08 02:27:00,
2013-02-07 18:30:00,33.8,29.8,30.03,SW,225,0.0,0.0,85,0.00,CLR,BKN,0.14,WeatherDisplay:10.37,2013-02-08 02:30:00,
2013-02-07 18:35:00,33.4,29.4,30.03,SW,225,0.0,0.0,85,0.00,CLR,BKN,0.14,WeatherDisplay:10.37,2013-02-08 02:35:00,
2013-02-07 19:00:00,32.7,29.3,30.04,West,270,0.0,0.0,87,0.00,CLR,BKN,0.14,WeatherDisplay:10.37,2013-02-08 03:00:00,
2013-02-07 19:05:00,32.7,29.3,30.04,West,270,0.0,0.0,87,0.00,CLR,BKN,0.14,WeatherDisplay:10.37,2013-02-08 03:05:00,
2013-02-07 19:10:00,32.4,29.2,30.04,West,270,0.0,0.0,88,0.00,CLR,BKN,0.14,WeatherDisplay:10.37,2013-02-08 03:10:00,
2013-02-07 19:15:00,32.2,29.0,30.04,West,270,0.0,0.0,88,0.00,CLR,BKN,0.14,WeatherDisplay:10.37,2013-02-08 03:15:00,
2013-02-07 19:20:00,32.2,29.0,30.05,West,270,0.0,1.1,88,0.00,CLR,BKN,0.14,WeatherDisplay:10.37,2013-02-08 03:20:00,
2013-02-07 19:25:00,32.0,28.8,30.05,West,270,0.0,0.0,88,0.00,CLR,BKN,0.14,WeatherDisplay:10.37,2013-02-08 03:25:00,
2013-02-07 19:27:00,31.6,28.8,30.05,West,270,0.0,0.0,89,0.00,CLR,BKN,0.14,WeatherDisplay:10.37,2013-02-08 03:27:00,
2013-02-07 19:30:00,31.8,28.7,30.05,West,270,0.0,0.0,88,0.00,CLR,BKN,0.14,WeatherDisplay:10.37,2013-02-08 03:30:00,
2013-02-07 19:35:00,31.6,28.5,30.05,West,270,0.0,1.1,88,0.00,CLR,BKN,0.14,WeatherDisplay:10.37,2013-02-08 03:35:00,
2013-02-07 20:00:00,32.9,30.3,30.06,West,270,0.7,2.3,90,0.00,CLR,BKN,0.14,WeatherDisplay:10.37,2013-02-08 04:00:00,
2013-02-07 20:05:00,32.9,30.3,30.06,West,270,0.7,2.3,90,0.00,CLR,BKN,0.14,WeatherDisplay:10.37,2013-02-08 04:05:00,
2013-02-07 20:10:00,33.4,30.8,30.06,West,270,0.7,1.6,90,0.00,CLR,BKN,0.14,WeatherDisplay:10.37,2013-02-08 04:10:00,
2013-02-07 20:15:00,33.6,31.0,30.07,NW,315,0.0,1.6,90,0.00,CLR,BKN,0.14,WeatherDisplay:10.37,2013-02-08 04:15:00,
2013-02-07 20:20:00,33.6,31.0,30.07,West,270,0.0,1.1,90,0.00,CLR,BKN,0.14,WeatherDisplay:10.37,2013-02-08 04:20:00,
2013-02-07 20:25:00,33.4,30.8,30.07,West,270,0.0,1.1,90,0.00,CLR,BKN,0.14,WeatherDisplay:10.37,2013-02-08 04:25:00,
2013-02-07 20:27:00,33.3,30.4,30.08,West,270,0.0,1.1,89,0.00,CLR,BKN,0.14,WeatherDisplay:10.37,2013-02-08 04:27:00,
2013-02-07 20:30:00,33.3,30.4,30.08,West,270,0.0,1.6,89,0.00,CLR,BKN,0.14,WeatherDisplay:10.37,2013-02-08 04:30:00,
2013-02-07 20:35:00,33.3,30.4,30.08,West,270,0.0,1.1,89,0.00,CLR,BKN,0.14,WeatherDisplay:10.37,2013-02-08 04:35:00,
2013-02-07 21:00:00,34.9,31.7,30.09,North,0,0.7,1.6,88,0.00,CLR,BKN,0.14,WeatherDisplay:10.37,2013-02-08 05:00:00,
2013-02-07 21:05:00,34.9,31.7,30.09,North,0,0.7,1.1,88,0.00,CLR,BKN,0.14,WeatherDisplay:10.37,2013-02-08 05:05:00,
2013-02-07 21:10:00,35.1,31.6,30.09,West,270,0.0,2.3,87,0.00,CLR,BKN,0.14,WeatherDisplay:10.37,2013-02-08 05:10:00,
2013-02-07 21:15:00,35.1,31.3,30.09,West,270,0.7,2.3,86,0.00,CLR,BKN,0.14,WeatherDisplay:10.37,2013-02-08 05:15:00,
2013-02-07 21:20:00,34.9,31.1,30.10,West,270,0.7,1.1,86,0.00,CLR,BKN,0.14,WeatherDisplay:10.37,2013-02-08 05:20:00,
2013-02-07 21:25:00,34.7,30.9,30.10,NW,315,0.7,2.3,86,0.00,CLR,BKN,0.14,WeatherDisplay:10.37,2013-02-08 05:25:00,
2013-02-07 21:27:00,34.9,31.1,30.10,NW,315,1.6,3.4,86,0.00,CLR,BKN,0.14,WeatherDisplay:10.37,2013-02-08 05:27:00,
2013-02-07 21:30:00,34.7,30.9,30.10,NW,315,0.0,2.3,86,0.00,CLR,BKN,0.14,WeatherDisplay:10.37,2013-02-08 05:30:00,
2013-02-07 21:35:00,34.9,31.1,30.10,West,270,0.7,2.3,86,0.00,CLR,BKN,0.14,WeatherDisplay:10.37,2013-02-08 05:35:00,
2013-02-07 22:00:00,35.1,31.0,30.10,West,270,0.0,3.4,85,0.00,CLR,BKN,0.14,WeatherDisplay:10.37,2013-02-08 06:00:00,
2013-02-07 22:05:00,34.9,30.8,30.11,West,270,0.7,3.4,85,0.00,CLR,BKN,0.14,WeatherDisplay:10.37,2013-02-08 06:05:00,
2013-02-07 22:10:00,35.1,31.0,30.11,West,270,0.0,3.4,85,0.00,CLR,BKN,0.14,WeatherDisplay:10.37,2013-02-08 06:10:00,
2013-02-07 22:15:00,35.1,31.0,30.11,West,270,0.0,2.3,85,0.00,CLR,BKN,0.14,WeatherDisplay:10.37,2013-02-08 06:15:00,
2013-02-07 22:20:00,34.9,30.8,30.11,West,270,0.0,1.1,85,0.00,CLR,BKN,0.14,WeatherDisplay:10.37,2013-02-08 06:20:00,
2013-02-07 22:25:00,34.9,30.8,30.11,West,270,0.7,2.3,85,0.00,CLR,BKN,0.14,WeatherDisplay:10.37,2013-02-08 06:25:00,
2013-02-07 22:27:00,34.9,31.1,30.11,West,270,0.7,2.3,86,0.00,CLR,BKN,0.14,WeatherDisplay:10.37,2013-02-08 06:27:00,
2013-02-07 22:30:00,34.9,31.1,30.10,SW,225,0.0,2.3,86,0.00,CLR,BKN,0.14,WeatherDisplay:10.37,2013-02-08 06:30:00,
2013-02-07 22:35:00,34.9,31.1,30.11,NW,315,0.7,2.3,86,0.00,CLR,BKN,0.14,WeatherDisplay:10.37,2013-02-08 06:35:00,
2013-02-07 23:00:00,34.7,31.2,30.11,West,270,0.0,1.6,87,0.00,CLR,BKN,0.14,WeatherDisplay:10.37,2013-02-08 07:00:00,
2013-02-07 23:05:00,34.7,31.2,30.11,West,270,0.0,1.1,87,0.00,CLR,BKN,0.14,WeatherDisplay:10.37,2013-02-08 07:05:00,
2013-02-07 23:10:00,34.5,30.8,30.11,West,270,0.0,1.1,86,0.00,CLR,BKN,0.14,WeatherDisplay:10.37,2013-02-08 07:10:00,
2013-02-07 23:15:00,34.2,30.4,30.11,North,0,0.0,1.1,86,0.00,CLR,BKN,0.14,WeatherDisplay:10.37,2013-02-08 07:15:00,
2013-02-07 23:20:00,34.0,30.2,30.11,West,270,0.0,1.6,86,0.00,CLR,BKN,0.14,WeatherDisplay:10.37,2013-02-08 07:20:00,
2013-02-07 23:25:00,33.8,30.3,30.11,West,270,0.0,1.6,87,0.00,CLR,BKN,0.14,WeatherDisplay:10.37,2013-02-08 07:25:00,
2013-02-07 23:27:00,33.6,30.2,30.11,West,270,0.7,3.4,87,0.00,CLR,BKN,0.14,WeatherDisplay:10.37,2013-02-08 07:27:00,
2013-02-07 23:30:00,33.6,30.2,30.11,West,270,0.0,1.6,87,0.00,CLR,BKN,0.14,WeatherDisplay:10.37,2013-02-08 07:30:00,
2013-02-07 23:35:00,33.6,30.2,30.11,NW,315,0.7,2.3,87,0.00,CLR,BKN,0.14,WeatherDisplay:10.37,2013-02-08 07:35:00,